Time,TemperatureF,DewpointF,PressureIn,WindDirection,WindDirectionDegrees,WindSpeedMPH,WindSpeedGustMPH,Humidity,HourlyPrecipIn,Conditions,Clouds,dailyrainin,SolarRadiationWatts/m^2,SoftwareType,DateUTC
2013-01-03 00:09:00,11.5,1.0,29.78,NW,317,3.0,8.0,62,0.00,,,0.00,0,weatherlink.com 1.10,2013-01-03 05:09:00,
2013-01-03 00:23:00,11.2,0.0,29.78,NNW,332,6.0,8.0,61,0.00,,,0.00,0,weatherlink.com 1.10,2013-01-03 05:23:00,
2013-01-03 00:38:00,10.9,-1.0,29.78,WNW,296,6.0,14.0,58,0.00,,,0.00,0,weatherlink.com 1.10,2013-01-03 05:38:00,
2013-01-03 00:53:00,10.4,-3.0,29.78,North,355,9.0,22.0,55,0.00,,,0.00,0,weatherlink.com 1.10,2013-01-03 05:53:00,
2013-01-03 01:08:00,9.5,-3.0,29.79,NNW,338,6.0,11.0,57,0.00,,,0.00,0,weatherlink.com 1.10,2013-01-03 06:08:00,
2013-01-03 01:24:00,8.9,-4.0,29.79,NW,325,4.0,12.0,57,0.00,,,0.00,0,weatherlink.com 1.10,2013-01-03 06:24:00,
2013-01-03 01:39:00,8.3,-3.0,29.80,WNW,296,4.0,10.0,59,0.00,,,0.00,0,weatherlink.com 1.10,2013-01-03 06:39:00,
2013-01-03 01:54:00,8.0,-3.0,29.81,North,11,6.0,9.0,61,0.00,,,0.00,0,weatherlink.com 1.10,2013-01-03 06:54:00,
2013-01-03 02:09:00,7.8,-4.0,29.81,West,278,1.0,8.0,60,0.00,,,0.00,0,weatherlink.com 1.10,2013-01-03 07:09:00,
2013-01-03 02:24:00,7.4,-4.0,29.80,NW,315,0.0,5.0,61,0.00,,,0.00,0,weatherlink.com 1.10,2013-01-03 07:24:00,
2013-01-03 02:39:00,7.1,-4.0,29.80,NW,321,6.0,12.0,60,0.00,,,0.00,0,weatherlink.com 1.10,2013-01-03 07:39:00,
2013-01-03 02:54:00,6.8,-5.0,29.80,NNW,329,10.0,11.0,59,0.00,,,0.00,0,weatherlink.com 1.10,2013-01-03 07:54:00,
2013-01-03 03:09:00,6.5,-5.0,29.79,SW,219,4.0,11.0,59,0.00,,,0.00,0,weatherlink.com 1.10,2013-01-03 08:09:00,
2013-01-03 03:24:00,6.2,-5.0,29.79,WNW,303,2.0,11.0,59,0.00,,,0.00,0,weatherlink.com 1.10,2013-01-03 08:24:00,
2013-01-03 03:39:00,6.2,-5.0,29.79,SW,232,4.0,11.0,59,0.00,,,0.00,0,weatherlink.com 1.10,2013-01-03 08:39:00,
2013-01-03 03:54:00,6.1,-6.0,29.78,SW,229,2.0,7.0,59,0.00,,,0.00,0,weatherlink.com 1.10,2013-01-03 08:54:00,
2013-01-03 04:09:00,5.9,-6.0,29.78,NW,323,5.0,6.0,59,0.00,,,0.00,0,weatherlink.com 1.10,2013-01-03 09:09:00,
2013-01-03 04:24:00,5.7,-6.0,29.78,North,5,0.0,4.0,60,0.00,,,0.00,0,weatherlink.com 1.10,2013-01-03 09:24:00,
2013-01-03 04:55:00,5.9,-5.0,29.77,NW,323,6.0,10.0,60,0.00,,,0.00,0,weatherlink.com 1.10,2013-01-03 09:55:00,
2013-01-03 05:10:00,6.2,-5.0,29.78,West,271,1.0,8.0,59,0.00,,,0.00,0,weatherlink.com 1.10,2013-01-03 10:10:00,
2013-01-03 05:25:00,6.5,-6.0,29.77,NNW,342,3.0,10.0,58,0.00,,,0.00,0,weatherlink.com 1.10,2013-01-03 10:25:00,
2013-01-03 05:40:00,6.5,-5.0,29.77,NW,319,7.0,9.0,59,0.00,,,0.00,0,weatherlink.com 1.10,2013-01-03 10:40:00,
2013-01-03 05:55:00,6.8,-5.0,29.77,NW,313,2.0,8.0,58,0.00,,,0.00,0,weatherlink.com 1.10,2013-01-03 10:55:00,
2013-01-03 06:10:00,6.8,-5.0,29.77,NW,313,2.0,9.0,59,0.00,,,0.00,0,weatherlink.com 1.10,2013-01-03 11:10:00,
2013-01-03 06:25:00,6.7,-5.0,29.77,NNW,330,4.0,10.0,59,0.00,,,0.00,0,weatherlink.com 1.10,2013-01-03 11:25:00,
2013-01-03 06:40:00,6.6,-5.0,29.77,North,355,2.0,10.0,59,0.00,,,0.00,0,weatherlink.com 1.10,2013-01-03 11:40:00,
2013-01-03 06:55:00,6.2,-5.0,29.77,NW,324,1.0,5.0,59,0.00,,,0.00,0,weatherlink.com 1.10,2013-01-03 11:55:00,
2013-01-03 07:10:00,5.6,-6.0,29.78,NW,320,0.0,2.0,60,0.00,,,0.00,0,weatherlink.com 1.10,2013-01-03 12:10:00,
2013-01-03 07:25:00,5.3,-5.0,29.79,NW,314,0.0,5.0,62,0.00,,,0.00,5,weatherlink.com 1.10,2013-01-03 12:25:00,
2013-01-03 07:40:00,4.9,-5.0,29.79,NW,314,0.0,3.0,63,0.00,,,0.00,12,weatherlink.com 1.10,2013-01-03 12:40:00,
2013-01-03 07:55:00,4.6,-5.0,29.79,NW,314,2.0,3.0,65,0.00,,,0.00,21,weatherlink.com 1.10,2013-01-03 12:55:00,
2013-01-03 08:11:00,4.5,-5.0,29.79,NW,314,0.0,2.0,65,0.00,,,0.00,39,weatherlink.com 1.10,2013-01-03 13:11:00,
2013-01-03 08:26:00,5.4,-4.0,29.79,NW,314,2.0,3.0,65,0.00,,,0.00,60,weatherlink.com 1.10,2013-01-03 13:26:00,
2013-01-03 08:41:00,7.5,-4.0,29.79,North,355,2.0,6.0,60,0.00,,,0.00,158,weatherlink.com 1.10,2013-01-03 13:41:00,
2013-01-03 08:56:00,9.2,-3.0,29.78,NW,322,2.0,8.0,57,0.00,,,0.00,200,weatherlink.com 1.10,2013-01-03 13:56:00,
2013-01-03 09:11:00,10.3,-3.0,29.78,NNE,15,3.0,3.0,54,0.00,,,0.00,51,weatherlink.com 1.10,2013-01-03 14:11:00,
2013-01-03 09:26:00,10.4,-3.0,29.79,West,269,0.0,6.0,54,0.00,,,0.00,33,weatherlink.com 1.10,2013-01-03 14:26:00,
2013-01-03 09:41:00,11.2,-3.0,29.79,West,274,4.0,6.0,53,0.00,,,0.00,33,weatherlink.com 1.10,2013-01-03 14:41:00,
2013-01-03 09:56:00,12.4,-2.0,29.78,NNW,333,0.0,4.0,52,0.00,,,0.00,332,weatherlink.com 1.10,2013-01-03 14:56:00,
2013-01-03 10:11:00,14.8,-1.0,29.78,NNW,328,2.0,3.0,49,0.00,,,0.00,357,weatherlink.com 1.10,2013-01-03 15:11:00,
2013-01-03 10:26:00,17.0,0.0,29.77,NNW,328,0.0,2.0,47,0.00,,,0.00,380,weatherlink.com 1.10,2013-01-03 15:26:00,
2013-01-03 10:41:00,17.2,-1.0,29.77,WNW,298,2.0,6.0,44,0.00,,,0.00,227,weatherlink.com 1.10,2013-01-03 15:41:00,
2013-01-03 10:56:00,17.7,-1.0,29.76,NW,319,2.0,6.0,43,0.00,,,0.00,408,weatherlink.com 1.10,2013-01-03 15:56:00,
2013-01-03 11:11:00,19.4,0.0,29.76,NNE,22,3.0,3.0,42,0.00,,,0.00,422,weatherlink.com 1.10,2013-01-03 16:11:00,
2013-01-03 11:26:00,20.4,0.0,29.75,WNW,298,5.0,6.0,41,0.00,,,0.00,429,weatherlink.com 1.10,2013-01-03 16:26:00,
2013-01-03 11:42:00,21.9,0.0,29.75,WNW,290,4.0,6.0,38,0.00,,,0.00,436,weatherlink.com 1.10,2013-01-03 16:42:00,
2013-01-03 11:57:00,22.7,-1.0,29.74,WNW,296,5.0,9.0,36,0.00,,,0.00,436,weatherlink.com 1.10,2013-01-03 16:57:00,
2013-01-03 12:12:00,23.2,-1.0,29.73,WNW,301,4.0,8.0,35,0.00,,,0.00,373,weatherlink.com 1.10,2013-01-03 17:12:00,
2013-01-03 12:27:00,23.4,-2.0,29.72,North,360,4.0,10.0,33,0.00,,,0.00,394,weatherlink.com 1.10,2013-01-03 17:27:00,
2013-01-03 12:42:00,23.1,-2.0,29.71,NNW,348,7.0,9.0,33,0.00,,,0.00,304,weatherlink.com 1.10,2013-01-03 17:42:00,
2013-01-03 12:57:00,23.4,-2.0,29.70,WNW,293,8.0,9.0,33,0.00,,,0.00,485,weatherlink.com 1.10,2013-01-03 17:57:00,
2013-01-03 13:12:00,24.5,-2.0,29.70,NW,319,7.0,10.0,32,0.00,,,0.00,432,weatherlink.com 1.10,2013-01-03 18:12:00,
2013-01-03 13:27:00,24.6,-2.0,29.70,West,275,2.0,6.0,31,0.00,,,0.00,427,weatherlink.com 1.10,2013-01-03 18:27:00,
2013-01-03 13:42:00,24.8,-3.0,29.70,SW,234,5.0,9.0,30,0.00,,,0.00,360,weatherlink.com 1.10,2013-01-03 18:42:00,
2013-01-03 14:12:00,24.5,-3.0,29.69,NW,315,3.0,7.0,30,0.00,,,0.00,302,weatherlink.com 1.10,2013-01-03 19:12:00,
2013-01-03 14:57:00,24.5,-2.0,29.69,NW,319,1.0,8.0,31,0.00,,,0.00,72,weatherlink.com 1.10,2013-01-03 19:57:00,
2013-01-03 15:13:00,24.7,-1.0,29.68,NW,314,1.0,6.0,33,0.00,,,0.00,148,weatherlink.com 1.10,2013-01-03 20:13:00,
2013-01-03 15:43:00,25.2,1.0,29.68,North,5,3.0,7.0,35,0.00,,,0.00,54,weatherlink.com 1.10,2013-01-03 20:43:00,
2013-01-03 15:58:00,24.9,1.0,29.69,WSW,248,1.0,6.0,36,0.00,,,0.00,25,weatherlink.com 1.10,2013-01-03 20:58:00,
2013-01-03 16:13:00,24.3,1.0,29.68,SW,229,0.0,3.0,36,0.00,,,0.00,11,weatherlink.com 1.10,2013-01-03 21:13:00,
2013-01-03 16:28:00,23.4,2.0,29.68,SW,229,0.0,0.0,39,0.00,,,0.00,0,weatherlink.com 1.10,2013-01-03 21:28:00,
2013-01-03 16:43:00,22.1,2.0,29.68,SW,229,0.0,0.0,41,0.00,,,0.00,0,weatherlink.com 1.10,2013-01-03 21:43:00,
2013-01-03 16:58:00,20.7,2.0,29.68,SW,229,0.0,0.0,44,0.00,,,0.00,0,weatherlink.com 1.10,2013-01-03 21:58:00,
2013-01-03 17:13:00,19.3,2.0,29.69,SW,229,0.0,0.0,48,0.00,,,0.00,0,weatherlink.com 1.10,2013-01-03 22:13:00,
2013-01-03 17:28:00,17.9,2.0,29.69,SW,229,0.0,0.0,50,0.00,,,0.00,0,weatherlink.com 1.10,2013-01-03 22:28:00,
2013-01-03 17:43:00,16.7,3.0,29.69,SW,229,0.0,0.0,55,0.00,,,0.00,0,weatherlink.com 1.10,2013-01-03 22:43:00,
2013-01-03 17:58:00,15.6,2.0,29.69,SW,229,0.0,1.0,56,0.00,,,0.00,0,weatherlink.com 1.10,2013-01-03 22:58:00,
2013-01-03 18:13:00,14.7,2.0,29.70,SW,229,0.0,0.0,58,0.00,,,0.00,0,weatherlink.com 1.10,2013-01-03 23:13:00,
2013-01-03 18:29:00,13.5,3.0,29.70,SW,229,0.0,2.0,63,0.00,,,0.00,0,weatherlink.com 1.10,2013-01-03 23:29:00,
2013-01-03 18:44:00,12.8,3.0,29.70,SW,229,0.0,0.0,65,0.00,,,0.00,0,weatherlink.com 1.10,2013-01-03 23:44:00,
2013-01-03 18:59:00,12.5,4.0,29.70,SW,229,0.0,1.0,68,0.00,,,0.00,0,weatherlink.com 1.10,2013-01-03 23:59:00,
2013-01-03 19:14:00,12.4,4.0,29.70,SW,229,0.0,0.0,70,0.00,,,0.00,0,weatherlink.com 1.10,2013-01-04 00:14:00,
2013-01-03 19:29:00,12.6,5.0,29.70,SW,229,0.0,0.0,72,0.00,,,0.00,0,weatherlink.com 1.10,2013-01-04 00:29:00,
2013-01-03 19:44:00,12.5,5.0,29.70,SW,229,0.0,0.0,72,0.00,,,0.00,0,weatherlink.com 1.10,2013-01-04 00:44:00,
2013-01-03 19:59:00,12.3,5.0,29.70,SW,229,0.0,0.0,73,0.00,,,0.00,0,weatherlink.com 1.10,2013-01-04 00:59:00,
2013-01-03 20:14:00,12.1,6.0,29.70,SW,229,0.0,0.0,75,0.00,,,0.00,0,weatherlink.com 1.10,2013-01-04 01:14:00,
2013-01-03 20:29:00,12.2,6.0,29.70,SW,229,0.0,1.0,76,0.00,,,0.00,0,weatherlink.com 1.10,2013-01-04 01:29:00,
2013-01-03 20:44:00,12.1,6.0,29.70,SW,229,0.0,2.0,77,0.00,,,0.00,0,weatherlink.com 1.10,2013-01-04 01:44:00,
2013-01-03 20:59:00,11.6,6.0,29.70,SW,229,0.0,0.0,78,0.00,,,0.00,0,weatherlink.com 1.10,2013-01-04 01:59:00,
2013-01-03 21:14:00,11.3,6.0,29.69,SW,229,0.0,1.0,78,0.00,,,0.00,0,weatherlink.com 1.10,2013-01-04 02:14:00,
2013-01-03 21:29:00,11.5,7.0,29.68,SW,229,0.0,1.0,82,0.00,,,0.00,0,weatherlink.com 1.10,2013-01-04 02:29:00,
2013-01-03 21:44:00,12.5,8.0,29.68,SW,229,1.0,2.0,82,0.00,,,0.00,0,weatherlink.com 1.10,2013-01-04 02:44:00,
2013-01-03 22:00:00,13.2,9.0,29.68,SW,229,0.0,2.0,82,0.00,,,0.00,0,weatherlink.com 1.10,2013-01-04 03:00:00,
2013-01-03 22:15:00,13.7,9.0,29.68,SW,229,0.0,2.0,81,0.00,,,0.00,0,weatherlink.com 1.10,2013-01-04 03:15:00,
2013-01-03 22:30:00,14.7,10.0,29.68,SSE,148,0.0,2.0,81,0.00,,,0.00,0,weatherlink.com 1.10,2013-01-04 03:30:00,
2013-01-03 22:45:00,15.7,10.0,29.67,SSE,148,1.0,2.0,79,0.00,,,0.00,0,weatherlink.com 1.10,2013-01-04 03:45:00,
2013-01-03 23:00:00,16.2,10.0,29.67,SSE,148,0.0,2.0,77,0.00,,,0.00,0,weatherlink.com 1.10,2013-01-04 04:00:00,
2013-01-03 23:15:00,16.2,10.0,29.66,SSE,148,0.0,1.0,76,0.00,,,0.00,0,weatherlink.com 1.10,2013-01-04 04:15:00,
2013-01-03 23:30:00,15.6,9.0,29.66,SSE,148,0.0,0.0,76,0.00,,,0.00,0,weatherlink.com 1.10,2013-01-04 04:30:00,
2013-01-03 23:45:00,14.6,9.0,29.65,SSE,148,0.0,1.0,77,0.00,,,0.00,0,weatherlink.com 1.10,2013-01-04 04:45:00,